COSMOS 2251 DEB

Satellite information

Favourite Embed

Satellite Type and Status

DEBRISIN ORBIT

Key statistics

Satellite COSMOS 2251 DEB at a glance.

Uptime

11650

Days in orbit

Revolutions

≈ 13.2

Per day

Orbit

LEO

Low Earth Orbit

Inclination

73.8

Latest

Satellite identification and parameters

Extended collection of information and parameters for COSMOS 2251 DEB.

Object identification

Identified? True

Debris? True

Object name: COSMOS 2251 DEB

International designator: 1993-036CX

Object number (NORAD): 33894

Object ID (CCSDS): 33894

Country: COMMONWEALTH OF INDEPENDENT STATES (CIS)

Current information (Y/N): Y

RCS size: SMALL

Orbital parameters

Period: 109.045 minutes

Inclination: 73.7677 deg

SMA: 7560.733 km

Apoapsis: 1615.209 km

Periapsis: 749.987 km

RAAN: 325.7742 deg

Eccentricy: 0.0572181

Argument of periapsis: 275.6853 deg

Mean anomaly: 77.9295 deg

Mean motion: 13.2055632 rev/day

Mean motion (dot): 0.00000867 rev/day2

B* drag term: 0.00092907 1/REarth

Two-line elements (TLE)

Creation date: May 9, 2025, 2:46 a.m.

Reference frame: TEME

Reference center: EARTH

Epoch: May 8, 2025, 10:51 p.m. UTC

TLE line 0: 0 COSMOS 2251 DEB

TLE line 1: 1 33894U 93036CX 25128.95268357 .00000867 00000-0 92907-3 0 9992

TLE line 2: 2 33894 73.7677 325.7742 0572181 275.6853 77.9295 13.20556320778329

Live tracking on map

Real-time ground track for satellite COSMOS 2251 DEB.

In-orbit conjunctions

A list of the most updated potential collisions computed for object COSMOS 2251 DEB.

Target Orbit TCA Probability of collision Miss distance Type
CZ-6A DEB LEO 2025-01-04 06:02:04 0.0003605249 27.0 (m) DEBRIS
CZ-6A DEB LEO 2025-01-02 19:25:41 0.0001175797 969.0 (m) DEBRIS

Associated space launch

Military communications satellite. Destroyed in a collision with Iridium 33.

COSMOS 2251 DEB was lifted into orbit during the mission ‘Kosmos-3M | Strela-2M 51’, on board a Kosmos-3M space rocket.

The launch took place on June 16, 1993, 4:17 a.m. from 132/1 (132L).

For more information about the launch, click the button.

Launch to space Kosmos-3M | Strela-2M 51
Kosmos-3M | Strela-2M 51

Agency: N/A

Status: Launch Successful

Launch date: June 16, 1993, 4:17 a.m. UTC

Rocket: Kosmos-3M

Launch pad: 132/1 (132L)

Location: Plesetsk Cosmodrome, Russian Federation

...

Latest news about this satellite

There are no fresh news available about this satellite. Check back as we update our databases every day.


Newsletter sign-up

Weekly statistics, charts and insights to help you stay on top of the space industry.